Home   Weather   Vancouver   Past weeks
Flag for Canada

Past Weather in Vancouver, British Columbia, Canada — January 2018

Now
52 °F

Passing clouds.


Feels Like: 49 °F
Forecast: 59 / 42 °F
Wind: 9 mph from Northwest

Location: Vancouver International Airport

Current Time: Apr 8, 2020 at 7:00:40 pm

Latest Report: Apr 8, 2020 at 6:00 pm


Visibility: 20 mi

Pressure: 30.25 "Hg

Humidity: 77%

Dew Point: 45 °F

Location of VancouverLocation

January 2018 Weather in Vancouver — Graph

°F

High & Low Weather Summary for January 2018

 TemperatureHumidityPressure
High54 °F (Jan 17, 1:00 pm)100% (Jan 1, 12:00 am)30.47 "Hg (Jan 1, 12:00 am)
Low25 °F (Jan 1, 3:00 am)63% (Jan 17, 1:00 pm)29.51 "Hg (Jan 24, 7:09 pm)
Average42 °F91%30.00 "Hg
* Reported Jan 1 12:00 am — Jan 31 11:00 pm, Vancouver. Weather by CustomWeather, © 2020

Note: Actual official high and low records may vary slightly from our data, if they occured in-between our weather recording intervals... More about our weather records

Vancouver Weather History for January 1, 2018

Scroll right to see more
 ConditionsComfort  
Time TempWeatherWind HumidityBarometerVisibility
12:00 am
Mon, Jan 1
27 °FPartly cloudy.7 mph100%30.34 "Hg20 mi
1:00 am28 °FPassing clouds.7 mph93%30.36 "Hg20 mi
2:00 am27 °FPassing clouds.6 mph93%30.37 "Hg15 mi
3:00 am25 °FPassing clouds.9 mph93%30.39 "Hg15 mi
4:00 am27 °FPassing clouds.5 mph100%30.40 "Hg15 mi
5:00 am25 °FPassing clouds.7 mph100%30.40 "Hg15 mi
6:00 am27 °FPassing clouds.5 mph93%30.42 "Hg15 mi
7:00 am27 °FOvercast.9 mph100%30.42 "Hg20 mi
8:00 am28 °FOvercast.9 mph93%30.43 "Hg30 mi
9:00 am27 °FBroken clouds.6 mph100%30.45 "Hg30 mi
10:00 am30 °FMore clouds than sun.3 mph93%30.47 "Hg30 mi
11:00 am34 °FMore clouds than sun.3 mph87%30.47 "Hg30 mi
12:00 pm36 °FCloudy.2 mph81%30.45 "Hg30 mi
1:00 pm36 °FOvercast.6 mph81%30.45 "Hg30 mi
2:00 pm37 °FBroken clouds.6 mph81%30.45 "Hg30 mi
2:51 pm36 °FMore clouds than sun.2 mph87%30.45 "Hg30 mi
3:00 pm36 °FBroken clouds.3 mph87%30.45 "Hg30 mi
4:00 pm36 °FPartly sunny.2 mph93%30.46 "Hg30 mi
5:00 pm36 °FPassing clouds.2 mph87%30.47 "Hg30 mi
6:00 pm32 °FPassing clouds.8 mph93%30.47 "Hg30 mi
7:00 pm30 °FPassing clouds.8 mph93%30.46 "Hg20 mi
8:00 pm28 °FPassing clouds.6 mph100%30.46 "Hg20 mi
9:00 pm30 °FPassing clouds.3 mph93%30.46 "Hg20 mi
10:00 pm28 °FChilly.5 mph93%30.46 "Hg20 mi
11:00 pm30 °FChilly.3 mph93%30.47 "Hg20 mi
11:35 pm28 °FPassing clouds.5 mph93%30.46 "Hg20 mi
Weather by CustomWeather, © 2020

See weather overview

Advertising